Location: Cactus School
(34.5700°N, 118.0931°W)
Time: 20:54:46
(UTC-08:00)

Tiros 1 - Pass Details

Date: 29 November 2019
Orbit: 630 x 664 km, 48.4° (Epoch: 14 December)

Event Time Altitude Azimuth Distance (km) Brightness Sun altitude
Rises 16:23:25 0° 307° (NW) 2,917 10.9 2.6°
Reaches altitude 10° 16:25:44 10° 306° (NW) 2,008 10.1 2.2°
Maximum altitude 16:30:22 84° 218° (SW) 638 7.3 1.3°
Drops below altitude 10° 16:35:00 10° 131° (SE) 2,012 9.5 0.5°
Sets 16:37:19 0° 131° (SE) 2,923 10.3 0.0°
